Pond Inlet,

9:26 AM EDT on July 27, 2017 (GMT -0400)
Pond Inlet

Weather History for CYIO - September, 2013

Change the Weather History Date:

Sunday, September 29, 2013

  Actual Average Record
Temperature  
Mean Temperature 24 °F -  
Max Temperature 29 °F 19 °F 42 °F (1996)
Min Temperature 18 °F 10 °F 6 °F (1997)
Degree Days  
Heating Degree Days 42    
Moisture  
Dew Point 19 °F    
Average Humidity 81    
Maximum Humidity 93    
Minimum Humidity 61    
Precipitation  
Precipitation 0.00 in - - ()
Sea Level Pressure  
Sea Level Pressure 29.79 in    
Wind  
Wind Speed 5 mph ()    
Max Wind Speed 9 mph    
Max Gust Speed -    
Visibility 9.0 miles    
Events      
Averages and records for this station are not official NWS values.
T = Trace of Precipitation, MM = Missing Value Source: Averaged Metar Reports

Daily Weather History Graph

Daily Weather History Graph

Search for Another Location

Airport or City:

Trip Planner

Search our weather history database for the weather conditions in past years. The results will help you decide how hot, cold, wet, or windy it might be!

Date:

Astronomy

Sep. 29, 2013 Rise Set
Actual Time 7:24 AM EDT 6:37 PM EDT
Civil Twilight 6:14 AM EDT 7:47 PM EDT
Nautical Twilight 4:46 AM EDT 9:13 PM EDT
Astronomical Twilight 2:46 AM EDT 11:08 PM EDT
Moon No Moon Rise 6:28 PM EDT (9/29)
Length of Visible Light 13h 33m
Length of Day
11h 13m
Waning Crescent, 27% of the Moon is Illuminated
Sep 29
Waning Crescent
Oct 4
New
Oct 11
First Quarter
Oct 18
Full
Oct 26
Last Quarter

Hourly Weather History & Observations

Time (EDT) Temp. Windchill Dew Point Humidity Pressure Visibility Wind Dir Wind Speed Gust Speed Precip Events Conditions
12:00 AM 21.2 °F 11.7 °F 17.6 °F 86% 29.82 in 9.0 mi SSE 8.1 mph - N/A   Clear
1:00 AM 23.0 °F 14.7 °F 19.4 °F 86% 29.82 in 9.0 mi ESE 6.9 mph - N/A   Clear
1:12 AM 23.0 °F 18.4 °F 19.4 °F 86% 29.82 in 9.0 mi East 3.5 mph - N/A   Clear
1:13 AM 23.0 °F 17.0 °F 19.4 °F 86% 29.82 in 9.0 mi East 4.6 mph - N/A   Clear
1:32 AM 24.8 °F 17.9 °F 21.2 °F 86% 29.82 in 9.0 mi NE 5.8 mph - N/A   Clear
1:33 AM 24.8 °F 17.9 °F 21.2 °F 86% 29.82 in 9.0 mi ENE 5.8 mph - N/A   Clear
1:53 AM 24.8 °F - 21.2 °F 86% 29.82 in 9.0 mi Calm Calm - N/A   Clear
2:00 AM 23 °F - 20 °F 83% 29.81 in 10 mi ESE 2.3 mph - -  
2:00 AM 23.0 °F - 19.4 °F 86% 29.81 in 9.0 mi Variable 2.3 mph - N/A   Clear
2:13 AM 21.2 °F 14.9 °F 17.6 °F 86% 29.81 in 9.0 mi SSE 4.6 mph - N/A   Clear
3:00 AM 19.4 °F 8.6 °F 17.6 °F 93% 29.81 in 9.0 mi SE 9.2 mph - N/A   Clear
4:00 AM 19.4 °F 12.8 °F 15.8 °F 86% 29.81 in 9.0 mi South 4.6 mph - N/A   Clear
4:47 AM 19.4 °F 8.6 °F 15.8 °F 86% 29.82 in 9.0 mi SSE 9.2 mph - N/A   Partly Cloudy
5:00 AM 20 °F - 16 °F 76% 29.82 in 10 mi SSE 9.2 mph - -  
5:00 AM 19.4 °F 9.5 °F 15.8 °F 86% 29.81 in 9.0 mi SE 8.1 mph - N/A   Partly Cloudy
5:07 AM 19.4 °F 12.8 °F 15.8 °F 86% 29.81 in 9.0 mi SE 4.6 mph - N/A   Partly Cloudy
5:24 AM 21.2 °F 16.4 °F 17.6 °F 86% 29.81 in 9.0 mi ESE 3.5 mph - N/A   Clear
6:00 AM 23.0 °F - 19.4 °F 86% 29.81 in 9.0 mi Variable 2.3 mph - N/A   Clear
6:48 AM 19.4 °F 11.5 °F 15.8 °F 86% 29.81 in 9.0 mi SSE 5.8 mph - N/A   Clear
7:00 AM 19.4 °F 9.5 °F 17.6 °F 93% 29.81 in 9.0 mi SE 8.1 mph - N/A   Clear
7:44 AM 19.4 °F 11.5 °F 17.6 °F 93% 29.80 in 9.0 mi SSE 5.8 mph - N/A   Clear
7:46 AM 19.4 °F 11.5 °F 17.6 °F 93% 29.80 in 9.0 mi SE 5.8 mph - N/A   Clear
8:00 AM 19 °F - 16 °F 83% 29.80 in 10 mi SSE 5.8 mph - -  
8:00 AM 19.4 °F 12.8 °F 15.8 °F 86% 29.80 in 9.0 mi SSE 4.6 mph - N/A   Clear
8:25 AM 19.4 °F 14.3 °F 15.8 °F 86% 29.80 in 9.0 mi SSE 3.5 mph - N/A   Clear
9:00 AM 21.2 °F 16.4 °F 17.6 °F 86% 29.80 in 9.0 mi SSE 3.5 mph - N/A   Clear
9:19 AM 23.0 °F 15.8 °F 19.4 °F 86% 29.79 in 9.0 mi SSE 5.8 mph - N/A   Mostly Cloudy
9:45 AM 24.8 °F 19.1 °F 21.2 °F 86% 29.79 in 9.0 mi SE 4.6 mph - N/A   Scattered Clouds
10:00 AM 24.8 °F 16.9 °F 21.2 °F 86% 29.79 in 9.0 mi SE 6.9 mph - N/A   Scattered Clouds
10:01 AM 24.8 °F 16.9 °F 21.2 °F 86% 29.79 in 9.0 mi SE 6.9 mph - N/A   Mostly Cloudy
10:46 AM 28.4 °F - 23.0 °F 80% 29.79 in 9.0 mi Variable 2.3 mph - N/A   Scattered Clouds
11:00 AM 28 °F - 22 °F 70% 29.79 in 10 mi West 1.2 mph - -  
11:00 AM 28.4 °F - 21.2 °F 74% 29.79 in 9.0 mi Calm Calm - N/A   Partly Cloudy
11:20 AM 28.4 °F 23.3 °F 21.2 °F 74% 29.79 in 9.0 mi NW 4.6 mph - N/A   Mostly Cloudy
11:24 AM 28.4 °F 24.6 °F 21.2 °F 74% 29.79 in 9.0 mi NW 3.5 mph - N/A   Scattered Clouds
12:00 PM 28.4 °F - 23.0 °F 80% 29.78 in 9.0 mi Calm Calm - N/A   Partly Cloudy
1:00 PM 28.4 °F 24.6 °F 23.0 °F 80% 29.77 in 9.0 mi West 3.5 mph - N/A   Clear
2:00 PM 29 °F - 22 °F 68% 29.77 in 10 mi West 4.6 mph - -  
2:00 PM 28.4 °F 24.6 °F 23.0 °F 80% 29.77 in 9.0 mi WNW 3.5 mph - N/A   Clear
3:00 PM 28.4 °F 22.2 °F 23.0 °F 80% 29.76 in 9.0 mi WNW 5.8 mph - N/A   Clear
4:00 PM 28.4 °F 24.6 °F 23.0 °F 80% 29.76 in 9.0 mi WNW 3.5 mph - N/A   Clear
5:00 PM 29 °F - 21 °F 61% 29.76 in 10 mi West 5.8 mph - -  
5:00 PM 28.4 °F 22.2 °F 21.2 °F 74% 29.76 in 9.0 mi West 5.8 mph - N/A   Clear
6:00 PM 28.4 °F 24.6 °F 21.2 °F 74% 29.75 in 8.0 mi WNW 3.5 mph - N/A   Clear
6:04 PM 28.4 °F - 19.4 °F 69% 29.75 in 5.0 mi West 2.3 mph - N/A   Haze
6:06 PM 28.4 °F - 19.4 °F 69% 29.75 in 7.0 mi Variable 2.3 mph - N/A   Clear
7:00 PM 24.8 °F - 19.4 °F 80% 29.75 in 9.0 mi South 2.3 mph - N/A   Clear
8:00 PM 24 °F - 16 °F 61% 29.75 in 10 mi South 4.6 mph - -  
8:00 PM 23.0 °F 17.0 °F 15.8 °F 74% 29.75 in 9.0 mi South 4.6 mph - N/A   Clear
9:00 PM 21.2 °F 11.7 °F 15.8 °F 80% 29.73 in 9.0 mi SSE 8.1 mph - N/A   Clear
10:00 PM 21.2 °F 16.4 °F 15.8 °F 80% 29.73 in 9.0 mi ESE 3.5 mph - N/A   Clear
11:00 PM 20 °F - 15 °F 72% 29.72 in 10 mi SSE 5.8 mph - -  
11:00 PM 19.4 °F 10.4 °F 14.0 °F 80% 29.71 in 9.0 mi SSE 6.9 mph - N/A   Clear